661  
ASUS44 KMAF 231001  
RWRMAF  
MIDLAND AREA WEATHER ROUNDUP  
NATIONAL WEATHER SERVICE MIDLAND TX  
500 AM CDT SAT JUN 23 2018  
   
..IN SOUTHWEST TEXAS AND SOUTHEAST NEW MEXICO
 
 
 
CITY SKY/WX TMP DP RH WIND PRES REMARKS
 
ALPINE CLEAR 77 59 53 SW14 29.96S  
ANDREWS FAIR 76 63 64 S14G22 29.77R  
ARTESIA CLEAR 68 50 52 SW7 29.76R  
BIG SPRING CLEAR 79 64 59 S24G30 29.76S  
CARLSBAD CLEAR 74 55 51 S13 29.71F  
DRYDEN N/A 78 66 66 E5 29.77S  
FORT STOCKTON CLEAR 76 63 64 S12 29.77R  
GUAD PASS CLEAR 79 39 23 SW15 29.97S  
HOBBS CLEAR 75 61 60 S18G24 29.76F  
LAMESA FAIR 77 63 61 S15G22 29.75F  
MARFA CLEAR 63 57 81 NE3 29.97  
MIDLAND AIRPK N/A 80 66 61 S16G24 29.76S  
MIDLAND INTL CLEAR 80 64 58 S16 29.75S  
ODESSA CLEAR 79 64 60 S21G28 29.76S  
PECOS CLEAR 75 63 66 NE6 29.72S  
PRESIDIO FAIR 84 59 42 E8 29.82S  
SEMINOLE CLEAR 75 62 63 S12 29.77S  
SNYDER CLEAR 80 64 57 S13 29.74S  
WINK CLEAR 76 64 66 SE9 29.74R  

   
..OTHER STATIONS IN TEXAS
 
 
 
CITY SKY/WX TMP DP RH WIND PRES REMARKS
 
ABILENE CLOUDY 81 65 58 SE9 29.78R  
AMARILLO CLEAR 63 59 87 SE20 29.85S  
AUSTIN CLEAR 76 74 93 S6 29.82R  
BROWNSVILLE MOCLDY 80 79 96 S7 29.83S  
CORPUS CHRISTI PTCLDY 78 78 100 S8 29.82F  
DALLAS FTW CLOUDY 79 67 66 NE16 29.81R  
DEL RIO CLEAR 82 72 71 SE10 29.76S  
EL PASO CLEAR 85 13 7 E8 29.83R  
HOUSTON INT FAIR 77 76 96 S5 29.85S  
LUBBOCK CLOUDY 79 61 53 S20 29.75F  
SAN ANGELO CLEAR 82 67 60 S20G33 29.74S  
SAN ANTONIO PTCLDY 78 71 79 S10 29.84R  
WACO PTCLDY 80 74 81 S18 29.80R  
WICHITA FALLS CLOUDY 66 62 87 NE8 29.78F  

   
..OTHER LOCATIONS IN NEW MEXICO
 
 
 
CITY SKY/WX TMP DP RH WIND PRES REMARKS
 
ALAMOGORDO CLEAR 72 19 14 NE8 29.85S  
ALBUQUERQUE PTCLDY 70 21 15 SE5 29.96R  
CANNON AFB NOT AVBL  
CLOVIS CLEAR 61 56 83 N12 29.86R  
HOLLOMAN AFB NOT AVBL  
ROSWELL CLEAR 71 53 52 VRB3 29.75R  
RUIDOSO CLEAR 68 12 11 W10 30.06F  
SANTA FE CLEAR 66 10 11 E3 30.01R  
TRUTH OR CONSE CLEAR 77 19 11 NW6 29.91S  
TUCUMCARI CLEAR 64 55 72 N10 29.85R  

 
 
 
CLICK HERE TO GO TO PREVIOUS BULLETINS.

The Nexlab TX Page
The Nexlab NM Page Main Text Page